Weather History for Iwojima, Japan

Change the Weather History Date:

Wednesday, January 2, 2013

  Actual Average Record
Temperature  
Mean Temperature 68 °F -  
Max Temperature 69 °F 69 °F 77 °F (2007)
Min Temperature 66 °F 64 °F 62 °F (1999)
Cooling Degree Days 2    
Growing Degree Days 18 (Base 50)    
Moisture  
Dew Point 63 °F    
Average Humidity 85    
Maximum Humidity 88    
Minimum Humidity 78    
Precipitation  
Precipitation 0.00 in - - ()
Sea Level Pressure  
Sea Level Pressure 30.11 in    
Wind  
Wind Speed 17 mph ()    
Max Wind Speed 21 mph    
Max Gust Speed 33 mph    
Visibility 4.6 miles    
Events Rain    
Averages and records for this station are not official NWS values.
T = Trace of Precipitation, MM = Missing Value Source: Averaged Metar Reports

Daily Weather History Graph

Daily Weather History Graph

Search for Another Location

Airport:

Trip Planner

Search our weather history database for the weather conditions in past years. The results will help you decide how hot, cold, wet, or windy it might be!

Date:

Astronomy

Jan. 02, 2013 Rise Set
Actual Time 7:19 AM ChST 5:57 PM ChST
Civil Twilight 6:54 AM ChST 6:22 PM ChST
Nautical Twilight 6:26 AM ChST 6:51 PM ChST
Astronomical Twilight 5:58 AM ChST 7:19 PM ChST
Moon 10:18 PM ChST (1/2) 10:11 AM ChST (1/2)
Length of Visible Light 11h 28m
Length of Day
10h 38m
Waning Gibbous, 80% of the Moon is Illuminated
Jan 2
Waning Gibbous
Jan 5
Last Quarter
Jan 12
New
Jan 19
First Quarter
Jan 27
Full

Hourly Weather History & Observations

Time (ChST) Temp. Dew Point Humidity Pressure Visibility Wind Dir Wind Speed Gust Speed Precip Events Conditions
1:00 AM 66.2 °F 60.8 °F 83% 30.09 in 2.8 mi ENE 20.7 mph 32.2 mph N/A Rain Light Rain Showers
4:00 AM 66.2 °F 62.6 °F 88% 30.09 in 2.5 mi ENE 20.7 mph - N/A Rain Light Rain Showers
6:00 AM 66.2 °F 62.6 °F 88% 30.09 in 2.5 mi ENE 19.6 mph - N/A Rain Light Rain Showers
6:18 AM 66.2 °F 62.6 °F 88% 30.09 in 2.5 mi ENE 17.3 mph 28.8 mph N/A Rain Light Rain Showers
7:00 AM 66.2 °F 62.6 °F 88% 30.12 in 2.8 mi ENE 19.6 mph - N/A Rain Light Rain Showers
7:33 AM 68.0 °F 62.6 °F 83% 30.12 in 3.1 mi ENE 20.7 mph 33.4 mph N/A Rain Light Rain Showers
7:42 AM 68.0 °F 62.6 °F 83% 30.12 in 4.3 mi ENE 19.6 mph 33.4 mph N/A Rain Light Rain Showers
8:00 AM 66.2 °F 62.6 °F 88% 30.12 in 6.2 mi ENE 19.6 mph - N/A   Overcast
9:00 AM 68.0 °F 62.6 °F 83% 30.15 in 6.2 mi ENE 19.6 mph - N/A   Overcast
10:00 AM 68.0 °F 62.6 °F 83% 30.15 in 5.0 mi ENE 17.3 mph 28.8 mph N/A Rain Light Rain Showers
11:00 AM 68.0 °F 62.6 °F 83% 30.15 in 6.2 mi ENE 19.6 mph - N/A   Mostly Cloudy
12:00 PM 68.0 °F 64.4 °F 88% 30.12 in 5.0 mi ENE 18.4 mph - N/A Rain Light Rain Showers
1:00 PM 68.0 °F 64.4 °F 88% 30.09 in 6.2 mi ENE 19.6 mph - N/A   Mostly Cloudy
2:00 PM 69.8 °F 64.4 °F 83% 30.09 in 6.2 mi ENE 18.4 mph - N/A   Mostly Cloudy
3:00 PM 69.8 °F 64.4 °F 83% 30.06 in 6.2 mi ENE 18.4 mph - N/A   Mostly Cloudy
4:00 PM 68.0 °F 64.4 °F 88% 30.09 in 3.1 mi ENE 17.3 mph - N/A Rain Light Rain Showers
5:00 PM 68.0 °F 64.4 °F 88% 30.09 in 3.1 mi NE 17.3 mph - N/A Rain Light Rain Showers
6:00 PM 68.0 °F 62.6 °F 83% 30.09 in 6.2 mi NE 16.1 mph 27.6 mph N/A   Mostly Cloudy
7:00 PM 68.0 °F 62.6 °F 83% 30.12 in 6.2 mi NE 17.3 mph - N/A   Mostly Cloudy
10:00 PM 69.8 °F 62.6 °F 78% 30.12 in 6.2 mi ENE 19.6 mph - N/A Rain Light Rain Showers